Tracking 29487 objects as of 11-Sep-2024
HD Live streaming from Space Station
objects crossing your sky now

FENGYUN 1C DEB

Track FENGYUN 1C DEB now!
10-day predictions


NORAD ID: 37081
Int'l Code: 1999-025EFR
Perigee: 692.4 km
Apogee: 1,167.1 km
Inclination: 98.7 °
Period: 103.5 minutes
Semi major axis: 7300 km
RCS: 0.0002 m2 (small)
Launch date: May 10, 1999
Source: People's Republic of China (PRC)
Launch site: Taiyaun Space Center, China (TSC)

Note: This is SATELLITE DEBRIS
Your satellite tracking list
Your tracking list is empty




NASA's NSSDC Master Catalog

Two Line Element Set (TLE):
1 37081U 99025EFR 24253.24618998  .00070896  00000-0  35944-1 0  9993
2 37081  98.7331  56.7952 0325105 200.7263 158.0458 13.91714748795054
Source of the keplerian elements: AFSPC